AI5YA-13 Weather Reports


time (UTC)temp
C
wind
direction
speed
KPH
gust
KPH
rain 1hr
cm
rain 24hr
cm
rain mn
cm
humidity
%
barometer
mb
20260510130735 22 195 9.7 12.9 0.00 0.00 0.00 65 1011.8
20260510130232 21 220 0.0 0.0 0.00 0.00 0.00 66 1011.3
20260510125728 21 186 0.0 0.0 0.00 0.00 0.00 67 1011.5
20260510125224 21 202 0.0 0.0 0.00 0.00 0.00 68 1011.2
20260510124721 20 219 0.0 0.0 0.00 0.00 0.00 69 1011.2
20260510124219 20 180 0.0 0.0 0.00 0.00 0.00 70 1011.2
20260510123714 20 176 1.6 4.8 0.00 0.00 0.00 71 1011.1
20260510123210 20 240 1.6 9.7 0.00 0.00 0.00 72 1011.2
20260510122706 19 209 0.0 0.0 0.00 0.00 0.00 73 1011.3
20260510122203 19 215 0.0 0.0 0.00 0.00 0.00 74 1011.0
20260510121659 18 241 0.0 0.0 0.00 0.00 0.00 75 1011.1
20260510121157 18 230 0.0 0.0 0.00 0.00 0.00 76 1010.9
20260510120654 18 226 0.0 0.0 0.00 0.00 0.00 76 1010.8
20260510120150 18 209 0.0 0.0 0.00 0.00 0.00 77 1010.7
20260510115646 18 205 0.0 0.0 0.00 0.00 0.00 77 1010.9
20260510115144 18 222 0.0 0.0 0.00 0.00 0.00 77 1010.7
20260510114640 18 221 0.0 0.0 0.00 0.00 0.00 77 1011.1
20260510114136 18 222 0.0 0.0 0.00 0.00 0.00 76 1010.7
20260510113631 18 230 0.0 0.0 0.00 0.00 0.00 76 1010.8
20260510113129 18 243 0.0 0.0 0.00 0.00 0.00 75 1011.1
20260510112625 18 227 0.0 0.0 0.00 0.00 0.00 74 1011.1
20260510112122 18 239 0.0 0.0 0.00 0.00 0.00 74 1010.9
20260510111618 18 197 0.0 0.0 0.00 0.00 0.00 74 1010.8
20260510111114 18 226 0.0 0.0 0.00 0.00 0.00 74 1010.9
20260510110610 18 182 0.0 0.0 0.00 0.00 0.00 74 1010.6
20260510110107 18 194 0.0 0.0 0.00 0.00 0.00 74 1010.4
20260510105603 18 171 0.0 0.0 0.00 0.00 0.00 73 1010.7
20260510105057 18 215 0.0 0.0 0.00 0.00 0.00 73 1011.0
20260510104555 18 230 0.0 0.0 0.00 0.00 0.00 72 1010.9
20260510104051 19 246 0.0 0.0 0.00 0.00 0.00 71 1010.8
20260510103548 19 258 0.0 0.0 0.00 0.00 0.00 71 1010.9
20260510103044 20 223 0.0 0.0 0.00 0.00 0.00 70 1010.9
20260510102540 20 164 0.0 0.0 0.00 0.00 0.00 70 1010.4
20260510102036 20 223 0.0 0.0 0.00 0.00 0.00 69 1010.3
20260510101534 20 234 0.0 0.0 0.00 0.00 0.00 69 1010.3
20260510101032 20 217 0.0 0.0 0.00 0.00 0.00 69 1010.4
20260510100528 20 242 0.0 0.0 0.00 0.00 0.00 68 1010.3
20260510100025 20 221 0.0 0.0 0.00 0.00 0.00 68 1010.4
20260510095521 20 216 0.0 0.0 0.00 0.00 0.00 68 1010.4
20260510095020 20 218 0.0 0.0 0.00 0.00 0.00 67 1010.1
20260510094515 20 206 0.0 0.0 0.00 0.00 0.00 67 1010.0
20260510094011 20 193 0.0 0.0 0.00 0.00 0.00 66 1010.1
20260510093507 20 216 0.0 0.0 0.00 0.00 0.00 66 1010.0
20260510093004 20 186 0.0 0.0 0.00 0.00 0.00 65 1010.2
20260510092501 21 210 0.0 0.0 0.00 0.00 0.00 64 1010.0
20260510092000 21 218 0.0 0.0 0.00 0.00 0.00 64 1010.4
20260510091457 21 189 0.0 0.0 0.00 0.00 0.00 64 1010.2
20260510090953 21 224 0.0 0.0 0.00 0.00 0.00 63 1010.1
20260510090451 21 218 0.0 0.0 0.00 0.00 0.00 63 1010.2
20260510085946 21 208 0.0 0.0 0.00 0.00 0.00 62 1010.1
20260510085441 21 204 0.0 0.0 0.00 0.00 0.00 62 1010.1
20260510084937 21 215 0.0 0.0 0.00 0.00 0.00 61 1010.2
20260510084434 21 223 0.0 0.0 0.00 0.00 0.00 61 1010.4
20260510083931 21 214 0.0 0.0 0.00 0.00 0.00 60 1010.2
20260510083427 21 198 0.0 0.0 0.00 0.00 0.00 60 1010.2
20260510082922 21 240 0.0 0.0 0.00 0.00 0.00 59 1010.1
20260510082421 21 214 0.0 0.0 0.00 0.00 0.00 59 1010.1
20260510081919 21 235 0.0 0.0 0.00 0.00 0.00 58 1010.3
20260510081415 22 216 0.0 0.0 0.00 0.00 0.00 57 1010.1
20260510080912 22 203 0.0 1.6 0.00 0.00 0.00 57 1010.3
20260510080411 22 211 0.0 0.0 0.00 0.00 0.00 56 1010.1
20260510075908 22 199 0.0 0.0 0.00 0.00 0.00 56 1010.2
20260510075406 22 237 0.0 0.0 0.00 0.00 0.00 55 1010.3
20260510074903 22 205 0.0 0.0 0.00 0.00 0.00 54 1010.1
20260510074400 22 198 0.0 0.0 0.00 0.00 0.00 53 1010.7
20260510073856 22 208 0.0 0.0 0.00 0.00 0.00 53 1010.6
20260510073352 22 239 0.0 0.0 0.00 0.00 0.00 52 1010.4
20260510072848 22 206 0.0 0.0 0.00 0.00 0.00 50 1010.7
20260510072345 22 212 0.0 0.0 0.00 0.00 0.00 49 1010.7
20260510071841 22 221 0.0 0.0 0.00 0.00 0.00 48 1010.9
20260510071337 22 207 0.0 0.0 0.00 0.00 0.00 48 1010.9
20260510070836 22 210 0.0 0.0 0.00 0.00 0.00 47 1010.8
20260510070332 23 213 0.0 1.6 0.00 0.00 0.00 46 1010.6
20260510065827 23 232 0.0 0.0 0.00 0.00 0.00 45 1010.7
20260510065325 23 244 0.0 0.0 0.00 0.00 0.00 45 1010.8
20260510064821 23 173 0.0 3.2 0.00 0.00 0.00 44 1010.9
20260510064319 23 206 0.0 0.0 0.00 0.00 0.00 43 1011.0
20260510063815 23 233 0.0 0.0 0.00 0.00 0.00 43 1010.8
20260510063311 23 191 0.0 0.0 0.00 0.00 0.00 42 1010.9
20260510062808 23 200 11.3 22.5 0.00 0.00 0.00 41 1010.8
20260510062306 23 266 0.0 0.0 0.00 0.00 0.00 40 1010.8
20260510061759 23 230 0.0 0.0 0.00 0.00 0.00 39 1010.9
20260510061257 23 211 0.0 0.0 0.00 0.00 0.00 38 1010.9
20260510060752 23 216 0.0 0.0 0.00 0.00 0.00 37 1011.0
20260510060250 23 226 0.0 0.0 0.00 0.00 0.00 37 1011.0
20260510055746 23 170 0.0 0.0 0.00 0.00 0.00 36 1010.8
20260510055245 23 240 0.0 0.0 0.00 0.00 0.00 35 1010.8
20260510054744 23 187 0.0 0.0 0.00 0.00 0.00 35 1010.7
20260510054240 23 205 0.0 0.0 0.00 0.00 0.00 35 1010.8
20260510053740 23 245 0.0 0.0 0.00 0.00 0.00 34 1010.8
20260510053237 23 219 0.0 0.0 0.00 0.00 0.00 34 1010.7
20260510052732 23 190 0.0 0.0 0.00 0.00 0.00 34 1010.4
20260510052228 24 155 0.0 0.0 0.00 0.00 0.00 33 1010.7
20260510051724 24 199 0.0 0.0 0.00 0.00 0.00 33 1010.7
20260510051221 24 212 0.0 0.0 0.00 0.00 0.00 33 1010.7
20260510050718 24 187 0.0 0.0 0.00 0.00 0.00 33 1010.6
20260510050216 24 195 0.0 0.0 0.00 0.00 0.00 32 1010.6
20260510045712 24 215 0.0 0.0 0.00 0.00 0.00 32 1010.6
20260510045209 24 196 0.0 0.0 0.00 0.00 0.00 32 1010.6
20260510044705 23 191 0.0 0.0 0.00 0.00 0.00 33 1010.9
20260510044203 23 180 0.0 0.0 0.00 0.00 0.00 33 1010.8
20260510043658 23 181 0.0 0.0 0.00 0.00 0.00 33 1010.7
20260510043155 23 188 0.0 0.0 0.00 0.00 0.00 33 1010.9
20260510042652 23 203 0.0 0.0 0.00 0.00 0.00 32 1010.8
20260510042148 23 209 0.0 0.0 0.00 0.00 0.00 32 1011.0
20260510041646 23 186 0.0 0.0 0.00 0.00 0.00 32 1010.9
20260510041143 24 162 0.0 0.0 0.00 0.00 0.00 31 1010.8
20260510040640 23 200 0.0 0.0 0.00 0.00 0.00 31 1010.7
20260510040136 23 169 0.0 0.0 0.00 0.00 0.00 30 1010.6
20260510035632 23 204 0.0 0.0 0.00 0.00 0.00 30 1010.4
20260510035127 23 232 0.0 0.0 0.00 0.00 0.00 30 1010.6
20260510034624 23 180 0.0 0.0 0.00 0.00 0.00 29 1010.6
20260510034121 23 209 0.0 0.0 0.00 0.00 0.00 29 1010.7
20260510033618 23 152 0.0 0.0 0.00 0.00 0.00 28 1010.4
20260510033115 24 191 0.0 0.0 0.00 0.00 0.00 27 1010.4
20260510032612 25 195 0.0 0.0 0.00 0.00 0.00 27 1010.6
20260510032107 25 171 0.0 0.0 0.00 0.00 0.00 26 1010.4
20260510031602 25 183 0.0 0.0 0.00 0.00 0.00 26 1010.2
20260510031059 25 204 0.0 0.0 0.00 0.00 0.00 25 1010.3
20260510030554 25 155 0.0 0.0 0.00 0.00 0.00 24 1010.2
20260510030052 25 205 0.0 0.0 0.00 0.00 0.00 24 1010.3
20260510025548 25 237 0.0 0.0 0.00 0.00 0.00 24 1010.2
20260510025046 25 201 0.0 0.0 0.00 0.00 0.00 24 1010.1
20260510024543 26 166 0.0 0.0 0.00 0.00 0.00 23 1010.0
20260510024039 25 195 0.0 0.0 0.00 0.00 0.00 23 1010.0
20260510023535 25 197 0.0 0.0 0.00 0.00 0.00 23 1009.9
20260510023033 25 180 0.0 0.0 0.00 0.00 0.00 23 1009.9
20260510022532 25 180 0.0 0.0 0.00 0.00 0.00 23 1009.9
20260510022026 26 201 0.0 0.0 0.00 0.00 0.00 23 1009.5
20260510021523 26 180 0.0 0.0 0.00 0.00 0.00 23 1009.8
20260510021020 26 200 0.0 0.0 0.00 0.00 0.00 22 1009.9
20260510020515 26 239 0.0 0.0 0.00 0.00 0.00 22 1009.7
20260510020011 27 205 0.0 0.0 0.00 0.00 0.00 21 1009.6
20260510015506 27 196 0.0 0.0 0.00 0.00 0.00 20 1009.2
20260510015002 27 180 0.0 0.0 0.00 0.00 0.00 20 1009.5
20260510014459 27 196 0.0 0.0 0.00 0.00 0.00 21 1009.2
20260510013956 27 170 0.0 0.0 0.00 0.00 0.00 20 1009.5
20260510013450 28 192 0.0 0.0 0.00 0.00 0.00 19 1009.1
20260510012947 28 169 0.0 0.0 0.00 0.00 0.00 18 1009.0
20260510012442 29 171 0.0 0.0 0.00 0.00 0.00 17 1008.9
20260510011936 30 166 0.0 0.0 0.00 0.00 0.00 17 1008.8
20260510011426 30 232 0.0 0.0 0.00 0.00 0.00 16 1008.8
20260510010922 31 171 0.0 0.0 0.00 0.00 0.00 16 1008.9
20260510010420 31 213 0.0 0.0 0.00 0.00 0.00 16 1008.8
20260510005916 31 210 0.0 0.0 0.00 0.00 0.00 15 1008.9
20260510005412 32 191 0.0 0.0 0.00 0.00 0.00 15 1008.9
20260510004910 32 224 0.0 0.0 0.00 0.00 0.00 14 1008.8
20260510004407 32 270 0.0 0.0 0.00 0.00 0.00 14 1008.8
20260510003905 32 224 0.0 0.0 0.00 0.00 0.00 14 1008.8
20260510003402 32 236 0.0 0.0 0.00 0.00 0.00 14 1008.5
20260510002901 32 210 0.0 0.0 0.00 0.00 0.00 13 1008.6
20260510002358 33 199 0.0 0.0 0.00 0.00 0.00 14 1008.8
20260510001854 33 204 0.0 0.0 0.00 0.00 0.00 13 1008.9
20260510001353 33 218 0.0 0.0 0.00 0.00 0.00 13 1008.9
20260510000849 33 172 0.0 0.0 0.00 0.00 0.00 13 1009.1
20260510000348 33 234 0.0 0.0 0.00 0.00 0.00 13 1009.0
20260509235842 33 197 0.0 0.0 0.00 0.00 0.00 13 1008.8
20260509235339 33 296 0.0 0.0 0.00 0.00 0.00 13 1009.0
20260509234835 33 273 0.0 0.0 0.00 0.00 0.00 13 1009.1
20260509234332 33 209 0.0 0.0 0.00 0.00 0.00 13 1009.3
20260509233830 33 230 0.0 0.0 0.00 0.00 0.00 13 1009.2
20260509233328 34 223 0.0 0.0 0.00 0.00 0.00 13 1009.0
20260509232823 33 283 0.0 0.0 0.00 0.00 0.00 13 1009.2
20260509232321 33 238 0.0 0.0 0.00 0.00 0.00 13 1009.0
20260509231817 33 238 0.0 0.0 0.00 0.00 0.00 13 1009.2
20260509231314 33 235 0.0 0.0 0.00 0.00 0.00 13 1009.2
20260509230812 -17 0.0 0.0 0.00 0.00 0.00 1009.6
20260509230309 -17 0.0 0.0 0.00 0.00 0.00 1009.5
20260509225803 -17 0.0 0.0 0.00 0.00 0.00 1009.6
20260509225301 -17 0.0 0.0 0.00 0.00 0.00 1009.5
20260509224756 -17 0.0 0.0 0.00 0.00 0.00 1009.3
20260509224253 -17 0.0 0.0 0.00 0.00 0.00 1009.5
20260509223750 -17 0.0 0.0 0.00 0.00 0.00 1009.8
20260509223247 -17 0.0 0.0 0.00 0.00 0.00 1009.5
20260509222743 -17 0.0 0.0 0.00 0.00 0.00 1009.5
20260509222239 -17 0.0 0.0 0.00 0.00 0.00 1009.3
20260509221734 -17 0.0 0.0 0.00 0.00 0.00 1009.7
20260509221231 -17 0.0 0.0 0.00 0.00 0.00 1009.9
20260509220727 -17 0.0 0.0 0.00 0.00 0.00 1009.8
20260509220224 -17 0.0 0.0 0.00 0.00 0.00 1009.9
20260509215719 -17 0.0 0.0 0.00 0.00 0.00 1009.9
20260509215216 -17 0.0 0.0 0.00 0.00 0.00 1010.2
20260509214713 -17 0.0 0.0 0.00 0.00 0.00 1009.9
20260509214210 -17 0.0 0.0 0.00 0.00 0.00 1010.2
20260509213707 -17 0.0 0.0 0.00 0.00 0.00 1010.2
20260509213202 -17 0.0 0.0 0.00 0.00 0.00 1010.1
20260509212701 -17 0.0 0.0 0.00 0.00 0.00 1010.2
20260509212157 -17 0.0 0.0 0.00 0.00 0.00 1010.6
20260509211653 -17 0.0 0.0 0.00 0.00 0.00 1010.7
20260509211150 -17 0.0 0.0 0.00 0.00 0.00 1010.4
20260509210646 -17 0.0 0.0 0.00 0.00 0.00 1010.6
20260509210138 -17 0.0 0.0 0.00 0.00 0.00 1010.7
20260509205633 -17 0.0 0.0 0.00 0.00 0.00 1011.0
20260509205127 -17 0.0 0.0 0.00 0.00 0.00 1010.9
20260509204623 -17 0.0 0.0 0.00 0.00 0.00 1011.1
20260509204120 -17 0.0 0.0 0.00 0.00 0.00 1010.7
20260509203616 -17 0.0 0.0 0.00 0.00 0.00 1011.0
20260509203115 -17 0.0 0.0 0.00 0.00 0.00 1011.2
20260509202609 -17 0.0 0.0 0.00 0.00 0.00 1011.1
20260509202104 -17 0.0 0.0 0.00 0.00 0.00 1011.3
20260509201559 -17 0.0 0.0 0.00 0.00 0.00 1011.4
20260509201057 -17 0.0 0.0 0.00 0.00 0.00 1011.4
20260509200556 -17 0.0 0.0 0.00 0.00 0.00 1011.7
20260509200053 -17 0.0 0.0 0.00 0.00 0.00 1011.4
20260509195549 -17 0.0 0.0 0.00 0.00 0.00 1011.8
20260509195044 -17 0.0 0.0 0.00 0.00 0.00 1011.9
20260509194538 -17 0.0 0.0 0.00 0.00 0.00 1011.8
20260509194036 -17 0.0 0.0 0.00 0.00 0.00 1011.8
20260509193537 -17 0.0 0.0 0.00 0.00 0.00 1011.9
20260509193033 -17 0.0 0.0 0.00 0.00 0.00 1012.0
20260509192530 -17 0.0 0.0 0.00 0.00 0.00 1011.7
20260509192025 -17 0.0 0.0 0.00 0.00 0.00 1012.1
20260509191520 -17 0.0 0.0 0.00 0.00 0.00 1011.9
20260509191016 -17 0.0 0.0 0.00 0.00 0.00 1012.1
20260509190513 -17 0.0 0.0 0.00 0.00 0.00 1012.3
20260509190011 -17 0.0 0.0 0.00 0.00 0.00 1012.0
20260509185508 -17 0.0 0.0 0.00 0.00 0.00 1012.3
20260509185004 -17 0.0 0.0 0.00 0.00 0.00 1012.3
20260509184503 -17 0.0 0.0 0.00 0.00 0.00 1012.6
20260509183958 -17 0.0 0.0 0.00 0.00 0.00 1012.1
20260509183453 -17 0.0 0.0 0.00 0.00 0.00 1012.4
20260509182949 -17 0.0 0.0 0.00 0.00 0.00 1012.8
20260509182446 -17 0.0 0.0 0.00 0.00 0.00 1012.9
20260509181944 -17 0.0 0.0 0.00 0.00 0.00 1012.9
20260509181441 -17 0.0 0.0 0.00 0.00 0.00 1013.0
20260509180939 -17 0.0 0.0 0.00 0.00 0.00 1013.0
20260509180434 -17 0.0 0.0 0.00 0.00 0.00 1012.9
20260509175931 -17 0.0 0.0 0.00 0.00 0.00 1013.3
20260509175427 -17 0.0 0.0 0.00 0.00 0.00 1013.3
20260509174924 -17 0.0 0.0 0.00 0.00 0.00 1013.1
20260509174420 -17 0.0 0.0 0.00 0.00 0.00 1013.2
20260509173916 -17 0.0 0.0 0.00 0.00 0.00 1013.1
20260509173415 -17 0.0 0.0 0.00 0.00 0.00 1013.3
20260509172912 -17 0.0 0.0 0.00 0.00 0.00 1013.4
20260509172409 -17 0.0 0.0 0.00 0.00 0.00 1013.4
20260509171905 -17 0.0 0.0 0.00 0.00 0.00 1013.2
20260509171401 -17 0.0 0.0 0.00 0.00 0.00 1013.5
20260509170857 -17 0.0 0.0 0.00 0.00 0.00 1013.7
20260509170353 -17 0.0 0.0 0.00 0.00 0.00 1013.7
20260509165848 30 220 0.0 0.0 0.00 0.00 0.00 23 1013.7
20260509165343 30 220 0.0 0.0 0.00 0.00 0.00 23 1013.7
20260509164839 -17 0.0 0.0 0.00 0.00 0.00 1014.0
20260509164335 -17 0.0 0.0 0.00 0.00 0.00 1013.9
20260509163832 -17 0.0 0.0 0.00 0.00 0.00 1013.6
20260509163328 -17 0.0 0.0 0.00 0.00 0.00 1013.7
20260509162827 -17 0.0 0.0 0.00 0.00 0.00 1013.9
20260509162320 -17 0.0 0.0 0.00 0.00 0.00 1013.9
20260509161817 28 263 0.0 0.0 0.00 0.00 0.00 24 1013.7
20260509161313 28 263 0.0 0.0 0.00 0.00 0.00 24 1013.7
20260509160809 28 219 0.0 0.0 0.00 0.00 0.00 27 1013.7
20260509160305 28 229 0.0 0.0 0.00 0.00 0.00 26 1014.0
20260509155800 28 231 0.0 0.0 0.00 0.00 0.00 29 1013.7
20260509155257 28 226 0.0 0.0 0.00 0.00 0.00 31 1013.7
20260509154753 27 180 0.0 0.0 0.00 0.00 0.00 31 1013.9
20260509154250 27 225 0.0 0.0 0.00 0.00 0.00 30 1014.1
20260509153747 27 222 0.0 0.0 0.00 0.00 0.00 32 1014.1
20260509153243 27 246 0.0 0.0 0.00 0.00 0.00 36 1013.7
20260509152740 27 232 0.0 0.0 0.00 0.00 0.00 38 1014.2
20260509152236 26 238 0.0 0.0 0.00 0.00 0.00 38 1014.0
20260509151733 26 215 0.0 0.0 0.00 0.00 0.00 39 1014.1
20260509151230 26 221 0.0 0.0 0.00 0.00 0.00 40 1014.0
20260509150728 26 195 0.0 0.0 0.00 0.00 0.00 40 1014.0
20260509150226 25 229 0.0 0.0 0.00 0.00 0.00 41 1014.0
20260509145723 25 256 0.0 0.0 0.00 0.00 0.00 42 1013.7
20260509145217 25 216 0.0 0.0 0.00 0.00 0.00 43 1014.0
20260509144714 24 238 0.0 0.0 0.00 0.00 0.00 44 1013.7
20260509144211 24 239 0.0 0.0 0.00 0.00 0.00 45 1013.9
20260509143708 23 232 0.0 0.0 0.00 0.00 0.00 47 1014.0
20260509143206 23 273 0.0 0.0 0.00 0.00 0.00 48 1014.0
20260509142701 23 221 0.0 0.0 0.00 0.00 0.00 48 1014.1
20260509142158 22 210 0.0 0.0 0.00 0.00 0.00 49 1014.2
20260509141653 22 222 0.0 0.0 0.00 0.00 0.00 49 1014.1
20260509141150 22 199 0.0 0.0 0.00 0.00 0.00 50 1014.0
20260509140647 21 214 0.0 0.0 0.00 0.00 0.00 53 1014.2
20260509140145 21 219 0.0 0.0 0.00 0.00 0.00 53 1014.1
20260509135642 21 235 0.0 0.0 0.00 0.00 0.00 55 1014.4
20260509135140 21 210 0.0 0.0 0.00 0.00 0.00 55 1014.3
20260509134636 20 250 0.0 0.0 0.00 0.00 0.00 56 1014.2
20260509134134 20 214 0.0 0.0 0.00 0.00 0.00 57 1014.3
20260509133631 20 283 0.0 0.0 0.00 0.00 0.00 57 1014.3
20260509133128 20 255 0.0 0.0 0.00 0.00 0.00 59 1014.4
20260509132626 19 224 0.0 0.0 0.00 0.00 0.00 61 1014.2
20260509132125 19 236 0.0 0.0 0.00 0.00 0.00 65 1014.2
20260509131620 18 172 0.0 0.0 0.00 0.00 0.00 66 1014.0
20260509131118 18 203 0.0 0.0 0.00 0.00 0.00 67 1014.3